Total_Precipitation_Accumulation
1.37 1.27 1.25 1.25 1.24 1.14 1.19 1.17 1.25 1.45 1.23 1.09 0.87 0.70 0.63 0.57 0.53 0.50 0.50 0.56 0.73 0.88 1.03 1.09 1.18 1.50 1.96
1.77 1.61 1.48 1.33 1.12 0.87 0.80 0.85 0.89 1.20 1.20 1.13 1.04 0.94 0.92 0.92 0.81 0.68 0.57 0.50 0.47 0.49 0.56 0.68 0.76 0.81 0.86
1.09 1.00 1.02 1.15 1.25 1.17 1.04 0.95 0.88 1.15 1.06 1.04 1.08 1.05 0.96 0.90 0.92 0.98 0.96 0.76 0.55 0.46 0.46 0.47 0.64 0.79 0.87
0.60 0.53 0.50 0.54 0.64 0.68 0.65 0.57 0.49 0.50 0.57 0.57 0.65 0.69 0.78 0.81 0.73 0.70 0.78 0.94 1.05 0.95 0.75 0.66 0.62 0.67 0.71
0.43 0.33 0.28 0.25 0.26 0.29 0.33 0.39 0.44 0.49 0.41 0.33 0.27 0.23 0.28 0.43 0.59 0.72 0.73 0.77 0.85 0.96 1.01 0.94 0.92 0.96 1.07
0.17 0.12 0.09 0.11 0.15 0.23 0.32 0.45 0.44 0.32 0.32 0.30 0.26 0.21 0.16 0.16 0.28 0.41 0.54 0.62 0.66 0.68 0.82 1.01 1.00 0.94 1.17
0.09 0.07 0.07 0.08 0.16 0.21 0.20 0.23 0.16 0.10 0.24 0.33 0.29 0.30 0.22 0.24 0.25 0.23 0.33 0.41 0.48 0.56 0.65 0.72 0.87 1.07 1.07
0.17 0.17 0.20 0.23 0.28 0.37 0.29 0.25 0.15 0.09 0.16 0.27 0.16 0.22 0.20 0.22 0.32 0.30 0.33 0.34 0.36 0.41 0.49 0.61 0.69 0.76 0.91
0.28 0.39 0.47 0.50 0.40 0.41 0.48 0.50 0.37 0.14 0.09 0.14 0.10 0.14 0.16 0.17 0.20 0.29 0.32 0.38 0.45 0.52 0.47 0.48 0.59 0.68 0.65
0.10 0.18 0.28 0.33 0.39 0.30 0.26 0.50 0.48 0.57 0.29 0.40 0.22 0.19 0.45 0.16 0.15 0.22 0.25 0.30 0.33 0.40 0.64 0.74 0.66 0.67 0.64
0.06 0.11 0.18 0.28 0.33 0.35 0.36 0.51 0.72 0.58 0.18 0.68 0.88 0.47 0.76 0.31 0.08 0.11 0.14 0.20 0.28 0.34 0.45 0.62 0.84 0.85 0.82
0.06 0.08 0.14 0.21 0.28 0.36 0.48 0.60 0.60 0.66 0.35 0.58 1.27 0.58 0.87 0.73 0.31 0.13 0.16 0.18 0.24 0.30 0.36 0.57 0.74 0.88 1.10
0.09 0.08 0.10 0.16 0.30 0.50 0.64 0.73 0.86 0.81 0.76 0.82 1.01 0.83 1.09 1.07 0.56 0.24 0.30 0.28 0.24 0.26 0.35 0.51 0.63 0.72 0.86
0.18 0.13 0.18 0.28 0.42 0.49 0.64 0.63 0.86 0.72 0.72 0.89 0.90 1.12 1.41 0.89 0.80 0.59 0.29 0.45 0.39 0.37 0.44 0.44 0.53 0.69 0.82
0.37 0.41 0.39 0.39 0.39 0.38 0.60 0.77 0.92 0.61 0.54 0.58 0.79 0.89 0.93 0.93 1.08 0.61 0.43 0.37 0.32 0.48 0.57 0.53 0.44 0.64 0.75
0.52 0.52 0.60 0.58 0.52 0.54 0.60 0.74 0.71 0.49 0.57 0.63 0.70 1.01 0.95 0.80 0.75 0.68 0.64 0.42 0.31 0.32 0.43 0.81 0.46 0.31 0.38
0.70 0.69 0.73 0.77 0.80 0.72 0.55 0.65 0.62 0.52 0.55 0.67 0.90 1.25 1.38 0.68 0.40 0.44 0.83 0.68 0.46 0.43 0.43 0.53 0.55 0.32 0.31